QPF
0.05 0.06 0.07 0.07 0.06 0.06 0.06 0.06 0.06 0.04 0.04 0.03 0.04 0.04 0.03 0.02 0.02 0.02 0.03 0.02 0.02 0.03 0.03 0.03 0.03 0.03 0.04 0.06 0.07 0.08 0.07 0.06 0.06 0.05 0.06 0.07 0.07 0.06
0.05 0.06 0.07 0.07 0.06 0.06 0.06 0.07 0.05 0.04 0.03 0.02 0.04 0.04 0.03 0.02 0.02 0.02 0.02 0.02 0.01 0.02 0.02 0.02 0.03 0.03 0.04 0.04 0.05 0.05 0.04 0.03 0.03 0.04 0.05 0.05 0.05 0.05
0.04 0.05 0.06 0.06 0.06 0.06 0.06 0.06 0.04 0.03 0.02 0.02 0.03 0.03 0.03 0.03 0.02 0.02 0.01 0.01 0.01 0.01 0.01 0.01 0.02 0.02 0.02 0.02 0.02 0.01 0.01 0.01 0.01 0.02 0.03 0.03 0.03 0.03
0.06 0.06 0.06 0.07 0.06 0.05 0.04 0.04 0.04 0.04 0.03 0.03 0.03 0.03 0.03 0.03 0.03 0.03 0.01 0.01 0.01 0.01 0.01 0.01 0.02 0.02 0.01 0.01 0.01 0.00 0.00 0.00 0.01 0.01 0.01 0.01 0.01 0.02
0.08 0.07 0.08 0.08 0.06 0.05 0.04 0.04 0.04 0.04 0.04 0.03 0.03 0.03 0.02 0.02 0.02 0.02 0.02 0.02 0.01 0.01 0.01 0.01 0.02 0.02 0.02 0.01 0.01 0.01 0.01 0.01 0.00 0.00 0.00 0.00 0.00 0.01
0.05 0.06 0.06 0.06 0.06 0.06 0.05 0.05 0.05 0.05 0.04 0.03 0.03 0.02 0.02 0.02 0.03 0.03 0.03 0.02 0.02 0.01 0.01 0.01 0.01 0.02 0.02 0.01 0.01 0.01 0.01 0.00 0.00 0.00 0.00 0.00 0.00 0.00
0.05 0.06 0.05 0.05 0.05 0.05 0.05 0.05 0.06 0.06 0.05 0.03 0.03 0.03 0.04 0.04 0.04 0.03 0.03 0.03 0.02 0.01 0.01 0.01 0.01 0.01 0.01 0.02 0.01 0.01 0.00 0.00 0.00 0.00 0.01 0.01 0.00 0.00
0.04 0.05 0.05 0.04 0.03 0.03 0.03 0.04 0.05 0.05 0.04 0.03 0.03 0.04 0.04 0.04 0.04 0.05 0.05 0.05 0.04 0.03 0.02 0.02 0.02 0.02 0.01 0.01 0.02 0.01 0.01 0.00 0.00 0.00 0.01 0.00 0.00 0.00
0.03 0.05 0.04 0.03 0.04 0.03 0.03 0.04 0.03 0.03 0.04 0.04 0.04 0.04 0.05 0.05 0.06 0.05 0.05 0.05 0.04 0.03 0.02 0.02 0.01 0.01 0.01 0.02 0.02 0.02 0.01 0.01 0.00 0.00 0.00 0.01 0.01 0.00
0.03 0.04 0.05 0.04 0.04 0.04 0.04 0.03 0.03 0.03 0.03 0.03 0.03 0.03 0.04 0.05 0.05 0.05 0.05 0.05 0.04 0.03 0.03 0.02 0.01 0.01 0.01 0.02 0.02 0.02 0.02 0.02 0.01 0.01 0.01 0.01 0.01 0.01
0.04 0.03 0.05 0.05 0.05 0.05 0.06 0.04 0.04 0.03 0.03 0.03 0.03 0.03 0.04 0.04 0.05 0.04 0.05 0.05 0.05 0.04 0.05 0.04 0.04 0.03 0.03 0.02 0.02 0.02 0.02 0.02 0.02 0.02 0.02 0.02 0.01 0.01
0.05 0.05 0.06 0.05 0.06 0.06 0.07 0.05 0.03 0.02 0.02 0.02 0.02 0.03 0.03 0.04 0.06 0.05 0.05 0.05 0.04 0.05 0.05 0.06 0.04 0.05 0.04 0.04 0.04 0.04 0.04 0.05 0.04 0.03 0.02 0.01 0.01 0.01
0.03 0.04 0.06 0.08 0.07 0.07 0.07 0.06 0.05 0.05 0.04 0.03 0.02 0.02 0.02 0.03 0.04 0.04 0.04 0.05 0.05 0.05 0.06 0.07 0.06 0.06 0.06 0.06 0.06 0.07 0.08 0.06 0.04 0.02 0.01 0.01 0.01 0.01
0.03 0.03 0.06 0.09 0.08 0.07 0.06 0.06 0.06 0.05 0.04 0.04 0.04 0.03 0.02 0.02 0.03 0.03 0.04 0.05 0.06 0.07 0.07 0.06 0.06 0.06 0.07 0.07 0.07 0.07 0.07 0.07 0.05 0.03 0.02 0.02 0.01 0.01
0.02 0.02 0.05 0.08 0.06 0.04 0.03 0.04 0.04 0.03 0.03 0.03 0.03 0.03 0.02 0.02 0.03 0.04 0.05 0.06 0.06 0.05 0.06 0.06 0.06 0.06 0.05 0.05 0.06 0.06 0.05 0.04 0.05 0.05 0.04 0.03 0.02 0.02
0.02 0.03 0.06 0.07 0.05 0.04 0.03 0.04 0.04 0.03 0.03 0.03 0.04 0.04 0.04 0.03 0.03 0.04 0.04 0.04 0.04 0.04 0.04 0.05 0.05 0.05 0.04 0.05 0.05 0.05 0.06 0.05 0.05 0.06 0.06 0.05 0.04 0.03
0.02 0.03 0.04 0.04 0.03 0.03 0.03 0.03 0.04 0.04 0.04 0.04 0.04 0.03 0.04 0.03 0.03 0.04 0.04 0.04 0.03 0.02 0.03 0.05 0.05 0.05 0.05 0.05 0.07 0.05 0.04 0.04 0.05 0.06 0.06 0.05 0.04 0.04
0.02 0.01 0.01 0.01 0.02 0.03 0.02 0.02 0.03 0.03 0.03 0.04 0.05 0.05 0.05 0.04 0.04 0.04 0.04 0.05 0.04 0.03 0.03 0.03 0.04 0.07 0.07 0.07 0.06 0.06 0.05 0.05 0.05 0.06 0.06 0.06 0.05 0.04
0.01 0.01 0.01 0.01 0.01 0.02 0.02 0.02 0.03 0.03 0.04 0.05 0.05 0.06 0.06 0.06 0.05 0.05 0.05 0.05 0.05 0.04 0.03 0.03 0.03 0.04 0.06 0.08 0.08 0.05 0.05 0.05 0.05 0.05 0.05 0.05 0.04 0.04
0.01 0.01 0.01 0.01 0.01 0.02 0.03 0.02 0.02 0.02 0.03 0.04 0.04 0.04 0.05 0.05 0.05 0.06 0.06 0.06 0.06 0.05 0.04 0.04 0.04 0.05 0.06 0.06 0.07 0.07 0.06 0.06 0.06 0.04 0.04 0.04 0.04 0.04
0.03 0.02 0.02 0.02 0.01 0.02 0.02 0.03 0.03 0.03 0.04 0.04 0.04 0.04 0.04 0.04 0.04 0.04 0.04 0.05 0.05 0.04 0.04 0.04 0.05 0.05 0.05 0.05 0.06 0.06 0.06 0.06 0.05 0.03 0.03 0.03 0.03 0.03
0.05 0.04 0.03 0.02 0.01 0.01 0.02 0.02 0.03 0.03 0.03 0.03 0.03 0.03 0.02 0.02 0.02 0.02 0.02 0.03 0.05 0.05 0.05 0.04 0.04 0.05 0.05 0.05 0.04 0.04 0.04 0.04 0.04 0.03 0.02 0.02 0.02 0.02
0.05 0.05 0.04 0.03 0.02 0.02 0.02 0.02 0.02 0.02 0.02 0.02 0.02 0.02 0.02 0.03 0.04 0.04 0.03 0.03 0.04 0.04 0.04 0.04 0.04 0.05 0.06 0.04 0.03 0.03 0.03 0.03 0.02 0.01 0.01 0.01 0.01 0.01
MSLP
1013.37 1013.63 1013.94 1014.27 1014.55 1014.73 1014.75 1014.60 1014.27 1013.77 1013.16 1012.49 1011.82 1011.21 1010.70 1010.32 1010.09 1009.99 1010.01 1010.13 1010.30 1010.51 1010.73 1010.95 1011.14 1011.31 1011.44 1011.53 1011.59 1011.62 1011.63 1011.63 1011.63 1011.65 1011.70 1011.78 1011.90 1012.06
1012.49 1012.65 1012.89 1013.19 1013.47 1013.69 1013.80 1013.76 1013.56 1013.21 1012.72 1012.16 1011.56 1010.99 1010.48 1010.06 1009.75 1009.56 1009.47 1009.47 1009.55 1009.67 1009.82 1009.99 1010.16 1010.33 1010.48 1010.61 1010.71 1010.78 1010.83 1010.86 1010.88 1010.91 1010.95 1011.02 1011.13 1011.27
1011.83 1011.86 1012.00 1012.21 1012.45 1012.67 1012.82 1012.85 1012.75 1012.51 1012.15 1011.69 1011.18 1010.66 1010.17 1009.73 1009.37 1009.10 1008.91 1008.79 1008.75 1008.76 1008.82 1008.92 1009.05 1009.20 1009.35 1009.51 1009.65 1009.78 1009.88 1009.96 1010.02 1010.08 1010.15 1010.22 1010.32 1010.45
1011.51 1011.41 1011.42 1011.52 1011.68 1011.85 1011.98 1012.03 1011.98 1011.80 1011.52 1011.14 1010.70 1010.23 1009.76 1009.32 1008.93 1008.58 1008.30 1008.09 1007.93 1007.83 1007.79 1007.80 1007.87 1007.98 1008.12 1008.29 1008.47 1008.64 1008.81 1008.95 1009.07 1009.18 1009.27 1009.37 1009.48 1009.61
1011.58 1011.35 1011.23 1011.21 1011.26 1011.34 1011.41 1011.42 1011.35 1011.19 1010.93 1010.59 1010.19 1009.75 1009.30 1008.85 1008.43 1008.04 1007.69 1007.38 1007.12 1006.92 1006.78 1006.70 1006.68 1006.74 1006.86 1007.02 1007.22 1007.44 1007.66 1007.86 1008.05 1008.21 1008.35 1008.47 1008.60 1008.73
1011.98 1011.66 1011.44 1011.30 1011.24 1011.21 1011.17 1011.09 1010.96 1010.75 1010.46 1010.10 1009.69 1009.26 1008.80 1008.35 1007.91 1007.49 1007.09 1006.72 1006.38 1006.08 1005.85 1005.68 1005.58 1005.57 1005.64 1005.79 1006.00 1006.24 1006.50 1006.75 1006.99 1007.20 1007.39 1007.54 1007.69 1007.83
1012.61 1012.23 1011.93 1011.71 1011.53 1011.39 1011.23 1011.04 1010.80 1010.49 1010.13 1009.72 1009.27 1008.81 1008.34 1007.88 1007.43 1006.98 1006.55 1006.13 1005.73 1005.37 1005.05 1004.79 1004.62 1004.53 1004.55 1004.66 1004.85 1005.10 1005.38 1005.67 1005.94 1006.20 1006.41 1006.60 1006.76 1006.90
1013.29 1012.89 1012.56 1012.28 1012.03 1011.78 1011.51 1011.20 1010.83 1010.41 1009.95 1009.45 1008.95 1008.44 1007.95 1007.47 1007.00 1006.55 1006.09 1005.64 1005.20 1004.78 1004.39 1004.06 1003.80 1003.65 1003.60 1003.65 1003.81 1004.04 1004.32 1004.62 1004.92 1005.19 1005.43 1005.63 1005.80 1005.95
1013.88 1013.51 1013.17 1012.87 1012.57 1012.24 1011.88 1011.46 1010.98 1010.45 1009.89 1009.31 1008.73 1008.17 1007.64 1007.14 1006.66 1006.20 1005.73 1005.26 1004.78 1004.30 1003.85 1003.45 1003.12 1002.89 1002.77 1002.76 1002.87 1003.06 1003.32 1003.61 1003.91 1004.19 1004.43 1004.63 1004.80 1004.94
1014.29 1013.96 1013.65 1013.35 1013.02 1012.66 1012.23 1011.73 1011.17 1010.55 1009.91 1009.25 1008.62 1008.01 1007.45 1006.92 1006.42 1005.94 1005.45 1004.95 1004.43 1003.91 1003.40 1002.93 1002.52 1002.21 1002.01 1001.94 1001.98 1002.13 1002.35 1002.62 1002.90 1003.17 1003.40 1003.60 1003.75 1003.89
1014.52 1014.23 1013.95 1013.66 1013.33 1012.94 1012.48 1011.94 1011.32 1010.66 1009.96 1009.26 1008.58 1007.95 1007.35 1006.80 1006.28 1005.77 1005.25 1004.71 1004.14 1003.56 1002.98 1002.44 1001.96 1001.56 1001.29 1001.15 1001.13 1001.22 1001.40 1001.63 1001.89 1002.13 1002.35 1002.52 1002.67 1002.79
1014.64 1014.37 1014.11 1013.82 1013.49 1013.09 1012.61 1012.05 1011.42 1010.74 1010.02 1009.31 1008.62 1007.97 1007.36 1006.78 1006.23 1005.68 1005.11 1004.52 1003.89 1003.24 1002.59 1001.97 1001.41 1000.94 1000.59 1000.38 1000.30 1000.34 1000.47 1000.67 1000.89 1001.10 1001.30 1001.45 1001.58 1001.68
1014.73 1014.46 1014.18 1013.88 1013.54 1013.13 1012.64 1012.09 1011.46 1010.79 1010.09 1009.39 1008.71 1008.07 1007.45 1006.85 1006.27 1005.68 1005.05 1004.40 1003.70 1002.97 1002.24 1001.54 1000.91 1000.37 999.95 999.68 999.55 999.54 999.63 999.79 999.97 1000.16 1000.33 1000.46 1000.56 1000.64
1014.87 1014.56 1014.25 1013.91 1013.54 1013.11 1012.62 1012.07 1011.47 1010.83 1010.17 1009.51 1008.86 1008.23 1007.62 1007.02 1006.41 1005.78 1005.10 1004.38 1003.61 1002.81 1002.01 1001.24 1000.54 999.94 999.47 999.15 998.97 998.92 998.98 999.10 999.26 999.41 999.55 999.65 999.72 999.77
1015.08 1014.71 1014.34 1013.94 1013.52 1013.06 1012.56 1012.02 1011.45 1010.86 1010.26 1009.65 1009.06 1008.47 1007.88 1007.29 1006.66 1006.00 1005.28 1004.50 1003.68 1002.82 1001.97 1001.15 1000.40 999.76 999.26 998.90 998.69 998.61 998.64 998.73 998.85 998.97 999.07 999.13 999.16 999.16
1015.30 1014.87 1014.43 1013.97 1013.49 1013.00 1012.50 1011.97 1011.44 1010.89 1010.35 1009.82 1009.29 1008.75 1008.21 1007.64 1007.02 1006.35 1005.61 1004.81 1003.96 1003.08 1002.20 1001.36 1000.59 999.94 999.42 999.04 998.82 998.71 998.71 998.77 998.85 998.93 998.99 999.00 998.96 998.90
1015.43 1014.94 1014.45 1013.94 1013.43 1012.91 1012.40 1011.90 1011.41 1010.92 1010.45 1009.99 1009.53 1009.07 1008.58 1008.05 1007.47 1006.82 1006.10 1005.31 1004.47 1003.60 1002.73 1001.91 1001.16 1000.52 1000.01 999.63 999.40 999.28 999.24 999.27 999.31 999.34 999.34 999.28 999.17 999.02
1015.33 1014.83 1014.31 1013.79 1013.26 1012.76 1012.27 1011.80 1011.36 1010.94 1010.54 1010.15 1009.77 1009.38 1008.96 1008.49 1007.96 1007.36 1006.70 1005.96 1005.17 1004.35 1003.54 1002.77 1002.07 1001.47 1000.99 1000.64 1000.40 1000.27 1000.21 1000.19 1000.18 1000.15 1000.08 999.95 999.76 999.52
1014.93 1014.46 1013.96 1013.46 1012.97 1012.51 1012.06 1011.65 1011.27 1010.93 1010.60 1010.29 1009.98 1009.66 1009.30 1008.90 1008.45 1007.92 1007.33 1006.67 1005.97 1005.25 1004.53 1003.84 1003.22 1002.68 1002.25 1001.92 1001.69 1001.55 1001.46 1001.40 1001.34 1001.25 1001.10 1000.90 1000.62 1000.29
1014.19 1013.79 1013.37 1012.95 1012.55 1012.16 1011.80 1011.46 1011.16 1010.89 1010.63 1010.39 1010.14 1009.88 1009.59 1009.25 1008.86 1008.42 1007.91 1007.36 1006.76 1006.15 1005.54 1004.96 1004.43 1003.97 1003.59 1003.30 1003.08 1002.92 1002.81 1002.71 1002.59 1002.44 1002.24 1001.96 1001.62 1001.22
1013.16 1012.87 1012.58 1012.28 1012.00 1011.73 1011.48 1011.25 1011.04 1010.83 1010.64 1010.45 1010.25 1010.03 1009.78 1009.49 1009.17 1008.79 1008.37 1007.92 1007.43 1006.94 1006.44 1005.97 1005.54 1005.16 1004.83 1004.57 1004.36 1004.20 1004.05 1003.91 1003.76 1003.56 1003.31 1003.00 1002.62 1002.18
1011.93 1011.79 1011.65 1011.51 1011.38 1011.26 1011.14 1011.02 1010.90 1010.77 1010.63 1010.48 1010.30 1010.11 1009.88 1009.62 1009.33 1009.01 1008.67 1008.30 1007.91 1007.52 1007.13 1006.76 1006.41 1006.10 1005.82 1005.59 1005.39 1005.21 1005.04 1004.87 1004.68 1004.46 1004.19 1003.87 1003.49 1003.06
1010.61 1010.63 1010.66 1010.70 1010.74 1010.78 1010.80 1010.80 1010.77 1010.71 1010.61 1010.48 1010.31 1010.12 1009.89 1009.64 1009.37 1009.08 1008.78 1008.48 1008.17 1007.86 1007.56 1007.26 1006.99 1006.73 1006.49 1006.27 1006.07 1005.88 1005.69 1005.50 1005.30 1005.07 1004.82 1004.52 1004.18 1003.80
Thickness
5746 5744 5742 5743 5742 5742 5740 5737 5732 5728 5729 5733 5734 5735 5732 5730 5727 5725 5724 5721 5719 5718 5717 5716 5715 5714 5712 5711 5709 5707 5706 5704 5704 5703 5702 5701 5700 5699
5742 5740 5739 5740 5739 5738 5737 5735 5733 5729 5726 5731 5729 5730 5727 5726 5723 5721 5720 5717 5715 5714 5713 5712 5711 5709 5708 5706 5705 5703 5702 5700 5699 5699 5698 5697 5696 5695
5738 5737 5735 5734 5734 5734 5733 5732 5730 5728 5723 5725 5726 5725 5721 5719 5719 5717 5716 5715 5714 5711 5709 5708 5706 5705 5703 5702 5700 5699 5697 5696 5695 5694 5694 5693 5692 5691
5732 5732 5731 5731 5729 5729 5728 5727 5726 5724 5722 5718 5720 5719 5716 5715 5713 5712 5713 5712 5710 5708 5705 5703 5701 5700 5698 5697 5695 5694 5693 5692 5691 5690 5689 5688 5687 5686
5728 5727 5727 5725 5724 5724 5722 5722 5721 5721 5718 5716 5715 5714 5713 5712 5709 5707 5707 5706 5706 5704 5701 5699 5697 5695 5694 5693 5692 5690 5689 5688 5687 5686 5684 5683 5682 5681
5724 5724 5723 5722 5720 5719 5718 5716 5716 5714 5712 5711 5710 5709 5707 5706 5704 5701 5700 5700 5699 5700 5697 5696 5693 5691 5690 5689 5687 5685 5684 5683 5682 5681 5680 5679 5677 5676
5719 5719 5719 5718 5716 5714 5714 5712 5710 5708 5707 5706 5704 5703 5701 5698 5697 5697 5694 5693 5693 5693 5692 5692 5691 5689 5688 5685 5682 5681 5680 5679 5677 5676 5674 5673 5672 5670
5714 5714 5715 5713 5711 5708 5706 5705 5703 5702 5702 5700 5699 5696 5694 5694 5692 5691 5688 5685 5684 5687 5685 5686 5687 5685 5685 5684 5680 5677 5675 5674 5673 5671 5669 5668 5666 5664
5709 5708 5709 5710 5707 5705 5702 5699 5698 5696 5695 5695 5693 5691 5690 5689 5686 5684 5682 5680 5680 5681 5679 5679 5681 5679 5680 5679 5676 5673 5671 5669 5668 5666 5664 5662 5660 5658
5705 5704 5702 5701 5700 5697 5696 5695 5694 5693 5691 5689 5688 5687 5686 5683 5681 5679 5677 5675 5675 5675 5674 5672 5674 5674 5675 5672 5669 5667 5665 5663 5662 5660 5658 5657 5655 5653
5699 5699 5697 5695 5692 5689 5689 5688 5687 5687 5685 5682 5680 5679 5677 5674 5672 5672 5670 5668 5667 5668 5668 5666 5667 5667 5667 5667 5665 5662 5660 5658 5656 5654 5653 5651 5649 5648
5694 5693 5689 5687 5684 5681 5682 5681 5679 5679 5678 5677 5673 5672 5671 5669 5666 5665 5665 5663 5661 5660 5662 5659 5660 5659 5658 5661 5660 5658 5655 5653 5651 5649 5647 5645 5643 5644
5687 5687 5684 5679 5676 5674 5673 5674 5671 5670 5670 5669 5668 5666 5665 5663 5662 5660 5659 5657 5655 5655 5656 5653 5653 5653 5653 5653 5654 5654 5652 5650 5648 5645 5643 5640 5637 5637
5678 5678 5675 5670 5668 5667 5666 5664 5663 5663 5664 5663 5661 5660 5658 5656 5655 5654 5652 5650 5649 5648 5647 5646 5646 5645 5645 5644 5645 5646 5646 5645 5644 5642 5640 5635 5632 5630
5670 5667 5664 5663 5661 5662 5659 5658 5658 5658 5657 5655 5653 5652 5651 5650 5648 5646 5644 5643 5642 5641 5641 5639 5639 5639 5638 5637 5638 5638 5637 5637 5637 5636 5634 5631 5629 5627
5662 5659 5656 5655 5656 5655 5654 5653 5653 5651 5649 5647 5645 5644 5643 5641 5640 5638 5637 5636 5635 5634 5634 5633 5632 5632 5631 5631 5631 5630 5630 5630 5630 5629 5627 5626 5624 5623
5652 5654 5653 5652 5651 5650 5649 5648 5646 5644 5641 5638 5637 5635 5634 5632 5630 5630 5628 5627 5627 5626 5625 5625 5625 5624 5623 5623 5623 5623 5623 5623 5623 5621 5618 5619 5619 5618
5644 5648 5647 5645 5644 5643 5642 5641 5639 5636 5633 5631 5629 5628 5626 5624 5622 5621 5620 5619 5618 5618 5617 5617 5617 5617 5616 5616 5614 5615 5616 5615 5615 5613 5611 5611 5612 5612
5639 5641 5640 5638 5636 5635 5634 5633 5631 5629 5626 5624 5623 5620 5618 5616 5614 5613 5612 5611 5610 5610 5610 5610 5610 5610 5609 5609 5608 5606 5607 5607 5606 5606 5604 5604 5605 5606
5635 5634 5633 5631 5629 5627 5626 5625 5624 5622 5619 5617 5615 5613 5611 5609 5607 5605 5604 5602 5601 5601 5601 5602 5603 5602 5601 5601 5602 5600 5598 5600 5599 5598 5598 5599 5599 5597
5629 5628 5626 5624 5621 5619 5618 5616 5615 5613 5611 5609 5608 5605 5604 5602 5600 5598 5597 5594 5593 5594 5593 5594 5594 5591 5593 5593 5594 5595 5594 5591 5591 5590 5591 5591 5592 5592
5620 5619 5618 5615 5613 5611 5610 5608 5607 5606 5603 5602 5600 5598 5597 5595 5593 5591 5590 5589 5587 5587 5587 5587 5586 5586 5586 5586 5587 5588 5587 5586 5584 5582 5582 5583 5585 5585
5612 5611 5610 5608 5605 5603 5602 5601 5600 5599 5597 5595 5593 5591 5589 5587 5585 5584 5583 5581 5580 5579 5579 5579 5579 5579 5579 5578 5579 5580 5580 5580 5580 5579 5579 5578 5576 5575